owner,sensor,date,latitude,longitude,vertical_datum,mass_concentration_of_oxygen_in_sea_water,qcFlag 
SCCF RECON,ioos:station:SCCF:11:1,2013-02-01T00:00:00Z,26.4679,-82.0631,1.847,7.23,1111122 
SCCF RECON,ioos:station:SCCF:11:1,2013-02-01T01:00:00Z,26.4679,-82.0631,1.735,7.1,1111122 
SCCF RECON,ioos:station:SCCF:11:1,2013-02-01T02:00:00Z,26.4679,-82.0631,1.654,6.95,1111122 
SCCF RECON,ioos:station:SCCF:11:1,2013-02-01T03:00:00Z,26.4679,-82.0631,1.612,6.87,1111122 
SCCF RECON,ioos:station:SCCF:11:1,2013-02-01T04:00:00Z,26.4679,-82.0631,1.656,6.51,1111122 
SCCF RECON,ioos:station:SCCF:11:1,2013-02-01T05:00:00Z,26.4679,-82.0631,1.734,6.75,1111122 
SCCF RECON,ioos:station:SCCF:11:1,2013-02-01T06:00:00Z,26.4679,-82.0631,1.834,6.81,1111122 
SCCF RECON,ioos:station:SCCF:11:1,2013-02-01T07:00:00Z,26.4679,-82.0631,1.914,6.73,1111122 
SCCF RECON,ioos:station:SCCF:11:1,2013-02-01T08:00:00Z,26.4679,-82.0631,1.974,6.7,1111122 
SCCF RECON,ioos:station:SCCF:11:1,2013-02-01T09:00:00Z,26.4679,-82.0631,2.001,6.53,1111122 
SCCF RECON,ioos:station:SCCF:11:1,2013-02-01T10:00:00Z,26.4679,-82.0631,1.941,6.59,1111122 
SCCF RECON,ioos:station:SCCF:11:1,2013-02-01T11:00:00Z,26.4679,-82.0631,1.866,6.65,1111122 
SCCF RECON,ioos:station:SCCF:11:1,2013-02-01T12:00:00Z,26.4679,-82.0631,1.789,6.57,1111122 
SCCF RECON,ioos:station:SCCF:11:1,2013-02-01T13:00:00Z,26.4679,-82.0631,1.702,6.45,1111122 
SCCF RECON,ioos:station:SCCF:11:1,2013-02-01T14:00:00Z,26.4679,-82.0631,1.628,6.45,1111122 
SCCF RECON,ioos:station:SCCF:11:1,2013-02-01T15:00:00Z,26.4679,-82.0631,1.569,6.57,1111122 
SCCF RECON,ioos:station:SCCF:11:1,2013-02-01T16:00:00Z,26.4679,-82.0631,1.555,7.15,1111122 
SCCF RECON,ioos:station:SCCF:11:1,2013-02-01T17:00:00Z,26.4679,-82.0631,1.661,7.47,1111122 
SCCF RECON,ioos:station:SCCF:11:1,2013-02-01T18:00:00Z,26.4679,-82.0631,1.792,7.52,1111122 
SCCF RECON,ioos:station:SCCF:11:1,2013-02-01T19:00:00Z,26.4679,-82.0631,1.92,7.64,1111122 
SCCF RECON,ioos:station:SCCF:11:1,2013-02-01T20:00:00Z,26.4679,-82.0631,2.016,7.82,1111122 
SCCF RECON,ioos:station:SCCF:11:1,2013-02-01T21:00:00Z,26.4679,-82.0631,2.095,7.82,1111122 
SCCF RECON,ioos:station:SCCF:11:1,2013-02-01T22:00:00Z,26.4679,-82.0631,2.099,7.8,1111122 
SCCF RECON,ioos:station:SCCF:11:1,2013-02-01T23:00:00Z,26.4679,-82.0631,2.045,7.75,1111122 
SCCF RECON,ioos:station:SCCF:11:1,2013-02-02T00:00:00Z,26.4679,-82.0631,1.931,7.67,1111122 
SCCF RECON,ioos:station:SCCF:11:1,2013-02-02T01:00:00Z,26.4679,-82.0631,1.811,7.79,1111122 
SCCF RECON,ioos:station:SCCF:11:1,2013-02-02T02:00:00Z,26.4679,-82.0631,1.725,7.72,1111122 
SCCF RECON,ioos:station:SCCF:11:1,2013-02-02T03:00:00Z,26.4679,-82.0631,1.651,7.68,1111122 
SCCF RECON,ioos:station:SCCF:11:1,2013-02-02T04:00:00Z,26.4679,-82.0631,1.621,7.59,1111122 
SCCF RECON,ioos:station:SCCF:11:1,2013-02-02T05:00:00Z,26.4679,-82.0631,1.666,7.35,1111122 
SCCF RECON,ioos:station:SCCF:11:1,2013-02-02T06:00:00Z,26.4679,-82.0631,1.751,7.25,1111122 
SCCF RECON,ioos:station:SCCF:11:1,2013-02-02T07:00:00Z,26.4679,-82.0631,1.834,7.28,1111122 
SCCF RECON,ioos:station:SCCF:11:1,2013-02-02T08:00:00Z,26.4679,-82.0631,1.894,7.26,1111122 
SCCF RECON,ioos:station:SCCF:11:1,2013-02-02T09:00:00Z,26.4679,-82.0631,1.942,7.2,1111122 
SCCF RECON,ioos:station:SCCF:11:1,2013-02-02T10:00:00Z,26.4679,-82.0631,1.96,7.05,1111122 
SCCF RECON,ioos:station:SCCF:11:1,2013-02-02T11:00:00Z,26.4679,-82.0631,1.968,7.03,1111122 
SCCF RECON,ioos:station:SCCF:11:1,2013-02-02T12:00:00Z,26.4679,-82.0631,1.892,7.07,1111122 
SCCF RECON,ioos:station:SCCF:11:1,2013-02-02T13:00:00Z,26.4679,-82.0631,1.827,7.05,1111122 
SCCF RECON,ioos:station:SCCF:11:1,2013-02-02T14:00:00Z,26.4679,-82.0631,1.781,7.03,1111122 
SCCF RECON,ioos:station:SCCF:11:1,2013-02-02T15:00:00Z,26.4679,-82.0631,1.75,7.02,1111122 
SCCF RECON,ioos:station:SCCF:11:1,2013-02-02T16:00:00Z,26.4679,-82.0631,1.751,7.21,1111122 
SCCF RECON,ioos:station:SCCF:11:1,2013-02-02T17:00:00Z,26.4679,-82.0631,1.827,7.4,1111122 
SCCF RECON,ioos:station:SCCF:11:1,2013-02-02T18:00:00Z,26.4679,-82.0631,1.94,7.73,1111122 
SCCF RECON,ioos:station:SCCF:11:1,2013-02-02T19:00:00Z,26.4679,-82.0631,2.037,7.83,1111122 
SCCF RECON,ioos:station:SCCF:11:1,2013-02-02T20:00:00Z,26.4679,-82.0631,2.14,7.89,1111122 
SCCF RECON,ioos:station:SCCF:11:1,2013-02-02T21:00:00Z,26.4679,-82.0631,2.215,8.18,1111122 
SCCF RECON,ioos:station:SCCF:11:1,2013-02-02T22:00:00Z,26.4679,-82.0631,2.27,8.11,1111122 
SCCF RECON,ioos:station:SCCF:11:1,2013-02-02T23:00:00Z,26.4679,-82.0631,2.29,7.99,1111122 
SCCF RECON,ioos:station:SCCF:11:1,2013-02-03T00:00:00Z,26.4679,-82.0631,2.212,7.92,1111122 
SCCF RECON,ioos:station:SCCF:11:1,2013-02-03T01:00:00Z,26.4679,-82.0631,2.106,8.01,1111122 
SCCF RECON,ioos:station:SCCF:11:1,2013-02-03T02:00:00Z,26.4679,-82.0631,1.98,7.96,1111122 
SCCF RECON,ioos:station:SCCF:11:1,2013-02-03T03:00:00Z,26.4679,-82.0631,1.881,7.96,1111122 
SCCF RECON,ioos:station:SCCF:11:1,2013-02-03T04:00:00Z,26.4679,-82.0631,1.781,7.87,1111122 
SCCF RECON,ioos:station:SCCF:11:1,2013-02-03T05:00:00Z,26.4679,-82.0631,1.711,7.75,1111122 
SCCF RECON,ioos:station:SCCF:11:1,2013-02-03T06:00:00Z,26.4679,-82.0631,1.706,7.74,1111122 
SCCF RECON,ioos:station:SCCF:11:1,2013-02-03T07:00:00Z,26.4679,-82.0631,1.761,7.56,1111122 
SCCF RECON,ioos:station:SCCF:11:1,2013-02-03T08:00:00Z,26.4679,-82.0631,1.861,7.44,1111122 
SCCF RECON,ioos:station:SCCF:11:1,2013-02-03T09:00:00Z,26.4679,-82.0631,1.929,7.33,1111122 
SCCF RECON,ioos:station:SCCF:11:1,2013-02-03T10:00:00Z,26.4679,-82.0631,1.95,7.35,1111122 
SCCF RECON,ioos:station:SCCF:11:1,2013-02-03T11:00:00Z,26.4679,-82.0631,1.97,7.26,1111122 
SCCF RECON,ioos:station:SCCF:11:1,2013-02-03T12:00:00Z,26.4679,-82.0631,1.99,7.23,1111122 
SCCF RECON,ioos:station:SCCF:11:1,2013-02-03T13:00:00Z,26.4679,-82.0631,1.992,7.22,1111122 
SCCF RECON,ioos:station:SCCF:11:1,2013-02-03T14:00:00Z,26.4679,-82.0631,1.966,7.27,1111122 
SCCF RECON,ioos:station:SCCF:11:1,2013-02-03T15:00:00Z,26.4679,-82.0631,1.928,7.4,1111122 
SCCF RECON,ioos:station:SCCF:11:1,2013-02-03T16:00:00Z,26.4679,-82.0631,1.861,7.37,1111122 
SCCF RECON,ioos:station:SCCF:11:1,2013-02-03T17:00:00Z,26.4679,-82.0631,1.812,7.49,1111122 
SCCF RECON,ioos:station:SCCF:11:1,2013-02-03T18:00:00Z,26.4679,-82.0631,1.799,8.1,1111122 
SCCF RECON,ioos:station:SCCF:11:1,2013-02-03T19:00:00Z,26.4679,-82.0631,1.865,8.07,1111122 
SCCF RECON,ioos:station:SCCF:11:1,2013-02-03T20:00:00Z,26.4679,-82.0631,2.017,7.94,1111122 
SCCF RECON,ioos:station:SCCF:11:1,2013-02-03T21:00:00Z,26.4679,-82.0631,2.129,7.87,1111122 
SCCF RECON,ioos:station:SCCF:11:1,2013-02-03T22:00:00Z,26.4679,-82.0631,2.2,7.81,1111122 
SCCF RECON,ioos:station:SCCF:11:1,2013-02-03T23:00:00Z,26.4679,-82.0631,2.212,7.76,1111122 
SCCF RECON,ioos:station:SCCF:11:1,2013-02-04T00:00:00Z,26.4679,-82.0631,2.183,7.86,1111122 
SCCF RECON,ioos:station:SCCF:11:1,2013-02-04T01:00:00Z,26.4679,-82.0631,2.107,7.9,1111122 
SCCF RECON,ioos:station:SCCF:11:1,2013-02-04T02:00:00Z,26.4679,-82.0631,2.028,7.86,1111122 
SCCF RECON,ioos:station:SCCF:11:1,2013-02-04T03:00:00Z,26.4679,-82.0631,1.93,7.9,1111122 
SCCF RECON,ioos:station:SCCF:11:1,2013-02-04T04:00:00Z,26.4679,-82.0631,1.811,7.85,1111122 
SCCF RECON,ioos:station:SCCF:11:1,2013-02-04T05:00:00Z,26.4679,-82.0631,1.707,7.73,1111122 
SCCF RECON,ioos:station:SCCF:11:1,2013-02-04T06:00:00Z,26.4679,-82.0631,1.631,7.59,1111122 
SCCF RECON,ioos:station:SCCF:11:1,2013-02-04T07:00:00Z,26.4679,-82.0631,1.6,7.46,1111122 
SCCF RECON,ioos:station:SCCF:11:1,2013-02-04T08:00:00Z,26.4679,-82.0631,1.66,7.39,1111122 
SCCF RECON,ioos:station:SCCF:11:1,2013-02-04T09:00:00Z,26.4679,-82.0631,1.771,7.36,1111122 
SCCF RECON,ioos:station:SCCF:11:1,2013-02-04T10:00:00Z,26.4679,-82.0631,1.87,7.43,1111122 
SCCF RECON,ioos:station:SCCF:11:1,2013-02-04T11:00:00Z,26.4679,-82.0631,1.919,7.43,1111122 
SCCF RECON,ioos:station:SCCF:11:1,2013-02-04T12:00:00Z,26.4679,-82.0631,1.969,7.43,1111122 
SCCF RECON,ioos:station:SCCF:11:1,2013-02-04T13:00:00Z,26.4679,-82.0631,1.993,7.24,1111122 
SCCF RECON,ioos:station:SCCF:11:1,2013-02-04T14:00:00Z,26.4679,-82.0631,2.02,7.37,1111122 
SCCF RECON,ioos:station:SCCF:11:1,2013-02-04T15:00:00Z,26.4679,-82.0631,2.01,7.41,1111122 
SCCF RECON,ioos:station:SCCF:11:1,2013-02-04T16:00:00Z,26.4679,-82.0631,1.95,7.51,1111122 
SCCF RECON,ioos:station:SCCF:11:1,2013-02-04T17:00:00Z,26.4679,-82.0631,1.928,7.5,1111122 
SCCF RECON,ioos:station:SCCF:11:1,2013-02-04T18:00:00Z,26.4679,-82.0631,1.916,7.7,1111122 
SCCF RECON,ioos:station:SCCF:11:1,2013-02-04T19:00:00Z,26.4679,-82.0631,1.931,7.98,1111122 
SCCF RECON,ioos:station:SCCF:11:1,2013-02-04T20:00:00Z,26.4679,-82.0631,1.985,8.3,1111122 
SCCF RECON,ioos:station:SCCF:11:1,2013-02-04T21:00:00Z,26.4679,-82.0631,2.106,8.16,1111122 
SCCF RECON,ioos:station:SCCF:11:1,2013-02-04T22:00:00Z,26.4679,-82.0631,2.211,8.08,1111122 
SCCF RECON,ioos:station:SCCF:11:1,2013-02-04T23:00:00Z,26.4679,-82.0631,2.279,7.9,1111122 
SCCF RECON,ioos:station:SCCF:11:1,2013-02-05T00:00:00Z,26.4679,-82.0631,2.3,8.07,1111122 
SCCF RECON,ioos:station:SCCF:11:1,2013-02-05T01:00:00Z,26.4679,-82.0631,2.29,7.96,1111122 
SCCF RECON,ioos:station:SCCF:11:1,2013-02-05T02:00:00Z,26.4679,-82.0631,2.211,7.9,1111122 
SCCF RECON,ioos:station:SCCF:11:1,2013-02-05T03:00:00Z,26.4679,-82.0631,2.081,7.96,1111122 
SCCF RECON,ioos:station:SCCF:11:1,2013-02-05T04:00:00Z,26.4679,-82.0631,1.979,7.82,1111122 
SCCF RECON,ioos:station:SCCF:11:1,2013-02-05T05:00:00Z,26.4679,-82.0631,1.87,7.75,1111122 
SCCF RECON,ioos:station:SCCF:11:1,2013-02-05T06:00:00Z,26.4679,-82.0631,1.761,7.61,1111122 
SCCF RECON,ioos:station:SCCF:11:1,2013-02-05T07:00:00Z,26.4679,-82.0631,1.638,7.46,1111122 
SCCF RECON,ioos:station:SCCF:11:1,2013-02-05T08:00:00Z,26.4679,-82.0631,1.556,7.32,1111122 
SCCF RECON,ioos:station:SCCF:11:1,2013-02-05T09:00:00Z,26.4679,-82.0631,1.56,7.16,1111122 
SCCF RECON,ioos:station:SCCF:11:1,2013-02-05T10:00:00Z,26.4679,-82.0631,1.65,7.19,1111122 
SCCF RECON,ioos:station:SCCF:11:1,2013-02-05T11:00:00Z,26.4679,-82.0631,1.752,7.17,1111122 
SCCF RECON,ioos:station:SCCF:11:1,2013-02-05T12:00:00Z,26.4679,-82.0631,1.84,7.23,1111122 
SCCF RECON,ioos:station:SCCF:11:1,2013-02-05T13:00:00Z,26.4679,-82.0631,1.95,7.16,1111122 
SCCF RECON,ioos:station:SCCF:11:1,2013-02-05T14:00:00Z,26.4679,-82.0631,2.01,7.2,1111122 
SCCF RECON,ioos:station:SCCF:11:1,2013-02-05T15:00:00Z,26.4679,-82.0631,2.09,7.55,1111122 
SCCF RECON,ioos:station:SCCF:11:1,2013-02-05T16:00:00Z,26.4679,-82.0631,2.11,7.64,1111122 
SCCF RECON,ioos:station:SCCF:11:1,2013-02-05T17:00:00Z,26.4679,-82.0631,2.08,7.54,1111122 
SCCF RECON,ioos:station:SCCF:11:1,2013-02-05T18:00:00Z,26.4679,-82.0631,2.018,7.74,1111122 
SCCF RECON,ioos:station:SCCF:11:1,2013-02-05T19:00:00Z,26.4679,-82.0631,2.0,7.81,1111122 
SCCF RECON,ioos:station:SCCF:11:1,2013-02-05T20:00:00Z,26.4679,-82.0631,2.031,7.95,1111122 
SCCF RECON,ioos:station:SCCF:11:1,2013-02-05T21:00:00Z,26.4679,-82.0631,2.11,8.23,1111122 
SCCF RECON,ioos:station:SCCF:11:1,2013-02-05T22:00:00Z,26.4679,-82.0631,2.203,8.16,1111122 
SCCF RECON,ioos:station:SCCF:11:1,2013-02-05T23:00:00Z,26.4679,-82.0631,2.276,7.74,1111122 
SCCF RECON,ioos:station:SCCF:11:1,2013-02-06T00:00:00Z,26.4679,-82.0631,2.33,7.77,1111122 
SCCF RECON,ioos:station:SCCF:11:1,2013-02-06T01:00:00Z,26.4679,-82.0631,2.37,7.65,1111122 
SCCF RECON,ioos:station:SCCF:11:1,2013-02-06T02:00:00Z,26.4679,-82.0631,2.341,7.33,1111122 
SCCF RECON,ioos:station:SCCF:11:1,2013-02-06T03:00:00Z,26.4679,-82.0631,2.28,7.85,1111122 
SCCF RECON,ioos:station:SCCF:11:1,2013-02-06T04:00:00Z,26.4679,-82.0631,2.179,7.99,1111122 
SCCF RECON,ioos:station:SCCF:11:1,2013-02-06T05:00:00Z,26.4679,-82.0631,2.041,7.58,1111122 
SCCF RECON,ioos:station:SCCF:11:1,2013-02-06T06:00:00Z,26.4679,-82.0631,1.911,7.43,1111122 
SCCF RECON,ioos:station:SCCF:11:1,2013-02-06T07:00:00Z,26.4679,-82.0631,1.769,7.36,1111122 
SCCF RECON,ioos:station:SCCF:11:1,2013-02-06T08:00:00Z,26.4679,-82.0631,1.637,7.08,1111122 
SCCF RECON,ioos:station:SCCF:11:1,2013-02-06T09:00:00Z,26.4679,-82.0631,1.551,6.88,1111122 
SCCF RECON,ioos:station:SCCF:11:1,2013-02-06T10:00:00Z,26.4679,-82.0631,1.557,6.88,1111122 
SCCF RECON,ioos:station:SCCF:11:1,2013-02-06T11:00:00Z,26.4679,-82.0631,1.659,6.83,1111122 
SCCF RECON,ioos:station:SCCF:11:1,2013-02-06T12:00:00Z,26.4679,-82.0631,1.79,6.86,1111122 
SCCF RECON,ioos:station:SCCF:11:1,2013-02-06T13:00:00Z,26.4679,-82.0631,1.895,6.95,1111122 
SCCF RECON,ioos:station:SCCF:11:1,2013-02-06T14:00:00Z,26.4679,-82.0631,2.015,7.05,1111122 
SCCF RECON,ioos:station:SCCF:11:1,2013-02-06T15:00:00Z,26.4679,-82.0631,2.1,7.22,1111122 
SCCF RECON,ioos:station:SCCF:11:1,2013-02-06T16:00:00Z,26.4679,-82.0631,2.141,7.47,1111122 
SCCF RECON,ioos:station:SCCF:11:1,2013-02-06T17:00:00Z,26.4679,-82.0631,2.129,7.52,1111122 
SCCF RECON,ioos:station:SCCF:11:1,2013-02-06T18:00:00Z,26.4679,-82.0631,2.08,7.52,1111122 
SCCF RECON,ioos:station:SCCF:11:1,2013-02-06T19:00:00Z,26.4679,-82.0631,2.018,7.91,1111122 
SCCF RECON,ioos:station:SCCF:11:1,2013-02-06T20:00:00Z,26.4679,-82.0631,1.989,8.0,1111122 
SCCF RECON,ioos:station:SCCF:11:1,2013-02-06T21:00:00Z,26.4679,-82.0631,1.989,7.72,1111122 
SCCF RECON,ioos:station:SCCF:11:1,2013-02-06T22:00:00Z,26.4679,-82.0631,2.051,8.82,1111122 
SCCF RECON,ioos:station:SCCF:11:1,2013-02-06T23:00:00Z,26.4679,-82.0631,2.15,8.38,1111122 
SCCF RECON,ioos:station:SCCF:11:1,2013-02-07T00:00:00Z,26.4679,-82.0631,2.249,8.02,1111122 
SCCF RECON,ioos:station:SCCF:11:1,2013-02-07T01:00:00Z,26.4679,-82.0631,2.325,7.69,1111122 
SCCF RECON,ioos:station:SCCF:11:1,2013-02-07T02:00:00Z,26.4679,-82.0631,2.37,7.58,1111122 
SCCF RECON,ioos:station:SCCF:11:1,2013-02-07T03:00:00Z,26.4679,-82.0631,2.38,7.64,1111122 
SCCF RECON,ioos:station:SCCF:11:1,2013-02-07T04:00:00Z,26.4679,-82.0631,2.34,7.3,1111122 
SCCF RECON,ioos:station:SCCF:11:1,2013-02-07T05:00:00Z,26.4679,-82.0631,2.195,7.91,1111122 
SCCF RECON,ioos:station:SCCF:11:1,2013-02-07T06:00:00Z,26.4679,-82.0631,2.032,7.53,1111122 
SCCF RECON,ioos:station:SCCF:11:1,2013-02-07T07:00:00Z,26.4679,-82.0631,1.88,7.37,1111122 
SCCF RECON,ioos:station:SCCF:11:1,2013-02-07T08:00:00Z,26.4679,-82.0631,1.731,7.17,1111122 
SCCF RECON,ioos:station:SCCF:11:1,2013-02-07T09:00:00Z,26.4679,-82.0631,1.596,6.91,1111122 
SCCF RECON,ioos:station:SCCF:11:1,2013-02-07T10:00:00Z,26.4679,-82.0631,1.491,6.62,1111122 
SCCF RECON,ioos:station:SCCF:11:1,2013-02-07T11:00:00Z,26.4679,-82.0631,1.47,6.62,1111122 
SCCF RECON,ioos:station:SCCF:11:1,2013-02-07T12:00:00Z,26.4679,-82.0631,1.59,6.51,1111122 
SCCF RECON,ioos:station:SCCF:11:1,2013-02-07T13:00:00Z,26.4679,-82.0631,1.753,6.75,1111122 
SCCF RECON,ioos:station:SCCF:11:1,2013-02-07T14:00:00Z,26.4679,-82.0631,1.883,6.96,1111122 
SCCF RECON,ioos:station:SCCF:11:1,2013-02-07T15:00:00Z,26.4679,-82.0631,2.005,7.09,1111122 
SCCF RECON,ioos:station:SCCF:11:1,2013-02-07T16:00:00Z,26.4679,-82.0631,2.088,7.28,1111122 
SCCF RECON,ioos:station:SCCF:11:1,2013-02-07T17:00:00Z,26.4679,-82.0631,2.128,7.4,1111122 
SCCF RECON,ioos:station:SCCF:11:1,2013-02-07T18:00:00Z,26.4679,-82.0631,2.13,7.51,1111122 
SCCF RECON,ioos:station:SCCF:11:1,2013-02-07T19:00:00Z,26.4679,-82.0631,2.071,7.61,1111122 
SCCF RECON,ioos:station:SCCF:11:1,2013-02-07T20:00:00Z,26.4679,-82.0631,1.98,8.1,1111122 
SCCF RECON,ioos:station:SCCF:11:1,2013-02-07T21:00:00Z,26.4679,-82.0631,1.919,8.01,1111122 
SCCF RECON,ioos:station:SCCF:11:1,2013-02-07T22:00:00Z,26.4679,-82.0631,1.921,7.91,1111122 
SCCF RECON,ioos:station:SCCF:11:1,2013-02-07T23:00:00Z,26.4679,-82.0631,1.971,8.3,1111122 
SCCF RECON,ioos:station:SCCF:11:1,2013-02-08T00:00:00Z,26.4679,-82.0631,2.13,8.64,1111122 
SCCF RECON,ioos:station:SCCF:11:1,2013-02-08T01:00:00Z,26.4679,-82.0631,2.28,8.6,1111122 
SCCF RECON,ioos:station:SCCF:11:1,2013-02-08T02:00:00Z,26.4679,-82.0631,2.35,8.44,1111122 
SCCF RECON,ioos:station:SCCF:11:1,2013-02-08T03:00:00Z,26.4679,-82.0631,2.36,8.21,1111122 
SCCF RECON,ioos:station:SCCF:11:1,2013-02-08T04:00:00Z,26.4679,-82.0631,2.35,8.22,1111122 
SCCF RECON,ioos:station:SCCF:11:1,2013-02-08T05:00:00Z,26.4679,-82.0631,2.32,7.94,1111122 
SCCF RECON,ioos:station:SCCF:11:1,2013-02-08T06:00:00Z,26.4679,-82.0631,2.208,7.78,1111122 
SCCF RECON,ioos:station:SCCF:11:1,2013-02-08T07:00:00Z,26.4679,-82.0631,1.996,7.26,1111122 
SCCF RECON,ioos:station:SCCF:11:1,2013-02-08T08:00:00Z,26.4679,-82.0631,1.881,6.98,1111122 
SCCF RECON,ioos:station:SCCF:11:1,2013-02-08T09:00:00Z,26.4679,-82.0631,1.712,6.71,1111122 
SCCF RECON,ioos:station:SCCF:11:1,2013-02-08T10:00:00Z,26.4679,-82.0631,1.569,6.35,1111122 
SCCF RECON,ioos:station:SCCF:11:1,2013-02-08T11:00:00Z,26.4679,-82.0631,1.495,6.2,1111122 
SCCF RECON,ioos:station:SCCF:11:1,2013-02-08T12:00:00Z,26.4679,-82.0631,1.52,6.08,1111122 
SCCF RECON,ioos:station:SCCF:11:1,2013-02-08T13:00:00Z,26.4679,-82.0631,1.679,6.29,1111122 
SCCF RECON,ioos:station:SCCF:11:1,2013-02-08T14:00:00Z,26.4679,-82.0631,1.839,7.05,1111122 
SCCF RECON,ioos:station:SCCF:11:1,2013-02-08T15:00:00Z,26.4679,-82.0631,1.978,7.14,1111122 
SCCF RECON,ioos:station:SCCF:11:1,2013-02-08T16:00:00Z,26.4679,-82.0631,2.091,7.32,1111122 
SCCF RECON,ioos:station:SCCF:11:1,2013-02-08T17:00:00Z,26.4679,-82.0631,2.16,7.51,1111122 
SCCF RECON,ioos:station:SCCF:11:1,2013-02-08T18:00:00Z,26.4679,-82.0631,2.169,7.61,1111122 
SCCF RECON,ioos:station:SCCF:11:1,2013-02-08T19:00:00Z,26.4679,-82.0631,2.083,7.89,1111122 
SCCF RECON,ioos:station:SCCF:11:1,2013-02-08T20:00:00Z,26.4679,-82.0631,1.969,8.05,1111122 
SCCF RECON,ioos:station:SCCF:11:1,2013-02-08T21:00:00Z,26.4679,-82.0631,1.889,8.12,1111122 
SCCF RECON,ioos:station:SCCF:11:1,2013-02-08T22:00:00Z,26.4679,-82.0631,1.843,8.29,1111122 
SCCF RECON,ioos:station:SCCF:11:1,2013-02-08T23:00:00Z,26.4679,-82.0631,1.831,8.37,1111122 
SCCF RECON,ioos:station:SCCF:11:1,2013-02-09T00:00:00Z,26.4679,-82.0631,1.9,7.94,1111122 
SCCF RECON,ioos:station:SCCF:11:1,2013-02-09T01:00:00Z,26.4679,-82.0631,2.045,7.77,1111122 
SCCF RECON,ioos:station:SCCF:11:1,2013-02-09T02:00:00Z,26.4679,-82.0631,2.195,7.66,1111122 
SCCF RECON,ioos:station:SCCF:11:1,2013-02-09T03:00:00Z,26.4679,-82.0631,2.31,7.46,1111122 
SCCF RECON,ioos:station:SCCF:11:1,2013-02-09T04:00:00Z,26.4679,-82.0631,2.356,7.39,1111122 
SCCF RECON,ioos:station:SCCF:11:1,2013-02-09T05:00:00Z,26.4679,-82.0631,2.3,7.46,1111122 
SCCF RECON,ioos:station:SCCF:11:1,2013-02-09T06:00:00Z,26.4679,-82.0631,2.201,7.22,1111122 
SCCF RECON,ioos:station:SCCF:11:1,2013-02-09T07:00:00Z,26.4679,-82.0631,2.04,6.81,1111122 
SCCF RECON,ioos:station:SCCF:11:1,2013-02-09T08:00:00Z,26.4679,-82.0631,1.876,6.59,1111122 
SCCF RECON,ioos:station:SCCF:11:1,2013-02-09T09:00:00Z,26.4679,-82.0631,1.717,6.39,1111122 
SCCF RECON,ioos:station:SCCF:11:1,2013-02-09T10:00:00Z,26.4679,-82.0631,1.561,6.12,1111122 
SCCF RECON,ioos:station:SCCF:11:1,2013-02-09T11:00:00Z,26.4679,-82.0631,1.429,5.91,1111122 
SCCF RECON,ioos:station:SCCF:11:1,2013-02-09T12:00:00Z,26.4679,-82.0631,1.361,5.76,1111122 
SCCF RECON,ioos:station:SCCF:11:1,2013-02-09T13:00:00Z,26.4679,-82.0631,1.414,6.37,1111122 
SCCF RECON,ioos:station:SCCF:11:1,2013-02-09T14:00:00Z,26.4679,-82.0631,1.578,6.07,1111122 
SCCF RECON,ioos:station:SCCF:11:1,2013-02-09T15:00:00Z,26.4679,-82.0631,1.731,6.81,1111122 
SCCF RECON,ioos:station:SCCF:11:1,2013-02-09T16:00:00Z,26.4679,-82.0631,1.853,4.84,1111122 
SCCF RECON,ioos:station:SCCF:11:1,2013-02-09T17:00:00Z,26.4679,-82.0631,1.964,5.47,1111122 
SCCF RECON,ioos:station:SCCF:11:1,2013-02-09T18:00:00Z,26.4679,-82.0631,2.05,7.61,1111122 
SCCF RECON,ioos:station:SCCF:11:1,2013-02-09T19:00:00Z,26.4679,-82.0631,2.086,7.49,1111122 
SCCF RECON,ioos:station:SCCF:11:1,2013-02-09T20:00:00Z,26.4679,-82.0631,2.008,7.77,1111122 
SCCF RECON,ioos:station:SCCF:11:1,2013-02-09T21:00:00Z,26.4679,-82.0631,1.896,6.6,1111122 
SCCF RECON,ioos:station:SCCF:11:1,2013-02-09T22:00:00Z,26.4679,-82.0631,1.834,6.68,1111122 
SCCF RECON,ioos:station:SCCF:11:1,2013-02-09T23:00:00Z,26.4679,-82.0631,1.783,7.16,1111122 
SCCF RECON,ioos:station:SCCF:11:1,2013-02-10T00:00:00Z,26.4679,-82.0631,1.81,4.53,1111122 
SCCF RECON,ioos:station:SCCF:11:1,2013-02-10T01:00:00Z,26.4679,-82.0631,1.947,5.99,1111122 
SCCF RECON,ioos:station:SCCF:11:1,2013-02-10T02:00:00Z,26.4679,-82.0631,2.106,5.32,1111122 
SCCF RECON,ioos:station:SCCF:11:1,2013-02-10T03:00:00Z,26.4679,-82.0631,2.23,4.87,1111122 
SCCF RECON,ioos:station:SCCF:11:1,2013-02-10T04:00:00Z,26.4679,-82.0631,2.32,4.52,1111122 
SCCF RECON,ioos:station:SCCF:11:1,2013-02-10T05:00:00Z,26.4679,-82.0631,2.4,3.93,1111122 
SCCF RECON,ioos:station:SCCF:11:1,2013-02-10T06:00:00Z,26.4679,-82.0631,2.39,3.21,1111122 
SCCF RECON,ioos:station:SCCF:11:1,2013-02-10T07:00:00Z,26.4679,-82.0631,2.27,5.85,1111122 
SCCF RECON,ioos:station:SCCF:11:1,2013-02-10T08:00:00Z,26.4679,-82.0631,2.07,6.11,1111122 
SCCF RECON,ioos:station:SCCF:11:1,2013-02-10T09:00:00Z,26.4679,-82.0631,1.908,6.71,1111122 
SCCF RECON,ioos:station:SCCF:11:1,2013-02-10T10:00:00Z,26.4679,-82.0631,1.759,6.67,1111122 
SCCF RECON,ioos:station:SCCF:11:1,2013-02-10T11:00:00Z,26.4679,-82.0631,1.615,6.41,1111122 
SCCF RECON,ioos:station:SCCF:11:1,2013-02-10T12:00:00Z,26.4679,-82.0631,1.493,5.19,1111122 
SCCF RECON,ioos:station:SCCF:11:1,2013-02-10T13:00:00Z,26.4679,-82.0631,1.456,4.58,1111122 
SCCF RECON,ioos:station:SCCF:11:1,2013-02-10T14:00:00Z,26.4679,-82.0631,1.58,4.99,1111122 
SCCF RECON,ioos:station:SCCF:11:1,2013-02-10T15:00:00Z,26.4679,-82.0631,1.776,5.34,1111122 
SCCF RECON,ioos:station:SCCF:11:1,2013-02-10T16:00:00Z,26.4679,-82.0631,1.933,5.55,1111122 
SCCF RECON,ioos:station:SCCF:11:1,2013-02-10T17:00:00Z,26.4679,-82.0631,2.036,4.82,1111122 
SCCF RECON,ioos:station:SCCF:11:1,2013-02-10T18:00:00Z,26.4679,-82.0631,2.127,5.01,1111122 
SCCF RECON,ioos:station:SCCF:11:1,2013-02-10T19:00:00Z,26.4679,-82.0631,2.154,4.78,1111122 
SCCF RECON,ioos:station:SCCF:11:1,2013-02-10T20:00:00Z,26.4679,-82.0631,2.081,5.83,1111122 
SCCF RECON,ioos:station:SCCF:11:1,2013-02-10T21:00:00Z,26.4679,-82.0631,1.955,6.81,1111122 
SCCF RECON,ioos:station:SCCF:11:1,2013-02-10T22:00:00Z,26.4679,-82.0631,1.864,8.28,1111122 
SCCF RECON,ioos:station:SCCF:11:1,2013-02-10T23:00:00Z,26.4679,-82.0631,1.812,8.19,1111122 
SCCF RECON,ioos:station:SCCF:11:1,2013-02-11T00:00:00Z,26.4679,-82.0631,1.781,8.09,1111122 
SCCF RECON,ioos:station:SCCF:11:1,2013-02-11T01:00:00Z,26.4679,-82.0631,1.82,7.84,1111122 
SCCF RECON,ioos:station:SCCF:11:1,2013-02-11T02:00:00Z,26.4679,-82.0631,1.935,5.63,1111122 
SCCF RECON,ioos:station:SCCF:11:1,2013-02-11T03:00:00Z,26.4679,-82.0631,2.1,4.24,1111122 
SCCF RECON,ioos:station:SCCF:11:1,2013-02-11T04:00:00Z,26.4679,-82.0631,2.22,4.2,1111122 
SCCF RECON,ioos:station:SCCF:11:1,2013-02-11T05:00:00Z,26.4679,-82.0631,2.31,4.56,1111122 
SCCF RECON,ioos:station:SCCF:11:1,2013-02-11T06:00:00Z,26.4679,-82.0631,2.38,7.16,1111122 
SCCF RECON,ioos:station:SCCF:11:1,2013-02-11T07:00:00Z,26.4679,-82.0631,2.37,3.78,1111122 
SCCF RECON,ioos:station:SCCF:11:1,2013-02-11T08:00:00Z,26.4679,-82.0631,2.26,6.14,1111122 
SCCF RECON,ioos:station:SCCF:11:1,2013-02-11T09:00:00Z,26.4679,-82.0631,2.09,6.0,1111122 
SCCF RECON,ioos:station:SCCF:11:1,2013-02-11T10:00:00Z,26.4679,-82.0631,1.939,5.72,1111122 
SCCF RECON,ioos:station:SCCF:11:1,2013-02-11T11:00:00Z,26.4679,-82.0631,1.803,5.48,1111122 
SCCF RECON,ioos:station:SCCF:11:1,2013-02-11T12:00:00Z,26.4679,-82.0631,1.679,5.25,1111122 
SCCF RECON,ioos:station:SCCF:11:1,2013-02-11T13:00:00Z,26.4679,-82.0631,1.594,4.86,1111122 
SCCF RECON,ioos:station:SCCF:11:1,2013-02-11T14:00:00Z,26.4679,-82.0631,1.653,6.19,1111122 
SCCF RECON,ioos:station:SCCF:11:1,2013-02-11T15:00:00Z,26.4679,-82.0631,1.837,4.5,1111122 
SCCF RECON,ioos:station:SCCF:11:1,2013-02-11T16:00:00Z,26.4679,-82.0631,1.998,4.2,1111122 
SCCF RECON,ioos:station:SCCF:11:1,2013-02-11T17:00:00Z,26.4679,-82.0631,2.105,4.73,1111122 
SCCF RECON,ioos:station:SCCF:11:1,2013-02-11T18:00:00Z,26.4679,-82.0631,2.173,7.34,1111122 
SCCF RECON,ioos:station:SCCF:11:1,2013-02-11T19:00:00Z,26.4679,-82.0631,2.218,7.51,1111122 